Terminal Aerodrome Forecast
Issued by NWS Paducah, KY

Home | Current Version | Previous Version | Graphics & Text | Print | Product List | Glossary On
Versions: 1 2 3 4 5 6 7 8 9 10 11 12 13 14
000
FTUS43 KPAH 261700
TAFEVV
TAF
KEVV 261720Z 2618/2718 VRB04KT P6SM SCT045
     FM270800 00000KT 3SM BR SKC
     FM271400 VRB03KT P6SM FEW060=

USA.gov is the U.S. government's official web portal to all federal, state and local government web resources and services.